Latest Weather Observations for Parafield

IDS60801

Issued at 11:31 pm CST Tuesday 26 July 2016 (issued every 30 minutes, with the page automatically refreshed every 10 minutes)

About weather observations | Map of weather stations | Latest weather observations for SA | Other Formats
Station Details ID: 023013 Name: PARAFIELD AIRPORT Lat: -34.80 Lon: 138.63 Height: 9.5 m
Data from the previous 72 hours. | See also: Recent months at Parafield
Date/Time
CST
Temp
°C
App
Temp
°C
Dew
Point
°C
Rel
Hum
%
Delta-T
°C
Wind Press
QNH
hPa
Press
MSL
hPa
Rain since
9am
mm
Dir  Spd
km/h
Gust
km/h
Spd
kts
Gust
kts
26/11:30pm 11.1 6.7 9.0 87 1.0 W 22 32 12 17 1013.3 1013.3 14.4
26/11:00pm 10.6 7.0 8.4 86 1.1 W 17 22 9 12 1013.1 1013.1 14.0
26/10:30pm 10.9 6.0 8.5 85 1.2 W 24 35 13 19 1012.8 1012.8 14.0
26/10:00pm 10.8 6.0 8.7 87 1.0 W 24 33 13 18 1012.4 1012.4 14.0
26/09:44pm 10.7 4.9 9.6 93 0.6 WSW 30 41 16 22 1012.3 1012.3 13.8
26/09:30pm 10.7 4.6 9.8 94 0.5 WSW 32 46 17 25 1012.1 1012.1 13.6
26/09:22pm 11.0 6.4 9.6 91 0.7 W 24 46 13 25 1012.1 1012.1 13.2
26/09:21pm 11.2 7.0 9.6 90 0.8 W 22 44 12 24 1012.1 1012.1 13.0
26/09:00pm 11.5 8.2 9.6 88 1.0 W 17 24 9 13 1011.2 1011.2 12.4
26/08:30pm 11.7 7.5 9.6 87 1.1 W 22 32 12 17 1011.1 1011.1 12.4
26/08:00pm 11.5 7.8 10.1 91 0.7 W 20 28 11 15 1010.6 1010.6 12.4
26/07:30pm 11.2 8.6 10.6 96 0.3 W 15 24 8 13 1010.1 1010.1 12.4
26/07:18pm 11.1 7.7 10.6 97 0.3 W 19 26 10 14 1009.8 1009.8 12.4
26/07:13pm 11.1 7.1 10.5 96 0.3 W 22 32 12 17 1009.8 1009.8 12.4
26/07:00pm 11.2 6.1 10.7 97 0.3 W 28 39 15 21 1009.7 1009.7 12.2
26/06:51pm 11.4 6.7 10.8 96 0.3 W 26 35 14 19 1009.8 1009.8 12.0
26/06:44pm 11.2 6.9 10.6 96 0.3 W 24 33 13 18 1009.3 1009.3 11.4
26/06:30pm 10.8 6.0 10.3 97 0.3 WSW 26 39 14 21 1009.4 1009.4 11.4
26/06:02pm 11.5 6.8 10.7 95 0.4 W 26 50 14 27 1008.9 1008.9 5.4
26/06:00pm 11.4 6.7 10.6 95 0.4 WNW 26 39 14 21 1008.8 1008.8 4.4
26/05:49pm 11.3 5.3 10.2 93 0.6 NW 32 48 17 26 1008.4 1008.4 3.2
26/05:48pm 11.3 5.3 10.0 92 0.7 NW 32 48 17 26 1008.7 1008.7 3.2
26/05:30pm 11.4 4.7 9.5 88 1.0 NNW 35 48 19 26 1007.8 1007.8 2.2
26/05:12pm 11.4 5.0 9.5 88 1.0 NNW 33 44 18 24 1007.7 1007.7 2.2
26/05:00pm 11.4 5.6 9.5 88 1.0 NNW 30 43 16 23 1008.0 1008.0 2.0
26/04:30pm 11.1 5.7 9.4 89 0.9 NNW 28 39 15 21 1008.7 1008.7 2.0
26/04:28pm 11.1 5.7 9.4 89 0.9 NNW 28 39 15 21 1008.9 1008.9 2.0
26/04:00pm 10.7 6.0 9.3 91 0.7 NNW 24 33 13 18 1009.5 1009.5 2.0
26/03:30pm 10.5 4.9 8.6 88 0.9 NNW 28 43 15 23 1010.5 1010.5 1.6
26/03:18pm 10.5 5.7 8.9 90 0.8 NW 24 35 13 19 1010.5 1010.5 1.2
26/03:08pm 10.3 4.3 8.6 89 0.8 NNW 30 50 16 27 1010.6 1010.6 1.0
26/03:01pm 10.7 4.6 8.1 84 1.3 NNW 30 50 16 27 1010.7 1010.7 0.4
26/03:00pm 10.7 5.0 8.3 85 1.2 NNW 28 41 15 22 1010.7 1010.7 0.4
26/02:30pm 11.5 6.8 7.6 77 1.9 NNW 22 33 12 18 1011.0 1011.0 0.0
26/02:00pm 11.2 5.7 7.7 79 1.7 NNW 26 35 14 19 1011.4 1011.4 0.0
26/01:47pm 11.7 5.4 7.4 75 2.1 NNW 30 48 16 26 1011.8 1011.8 0.0
26/01:30pm 11.8 6.1 6.9 72 2.3 NNW 26 37 14 20 1012.3 1012.3 0.0
26/01:00pm 11.9 6.1 6.2 68 2.7 NNW 26 39 14 21 1013.0 1013.0 0.0
26/12:30pm 12.0 7.0 6.3 68 2.7 NNW 22 37 12 20 1013.5 1013.5 0.0
26/12:00pm 11.4 4.5 6.5 72 2.3 NNW 32 43 17 23 1014.4 1014.5 0.0
26/11:30am 12.2 6.2 7.1 71 2.5 NNW 28 37 15 20 1014.6 1014.7 0.0
26/11:00am 11.7 5.2 6.6 71 2.4 NNW 30 44 16 24 1015.2 1015.3 0.0
26/10:30am 11.3 6.1 7.4 77 1.9 NW 24 37 13 20 1015.6 1015.7 0.0
26/10:00am 12.0 8.1 8.5 79 1.7 NNW 19 28 10 15 1015.8 1015.9 0.0
26/09:30am 10.2 6.3 7.1 81 1.5 N 17 22 9 12 1015.8 1015.9 0.0
26/09:00am 8.9 5.4 7.0 88 0.9 N 15 17 8 9 1015.8 1015.9 3.4
26/08:30am 7.9 5.0 6.7 92 0.6 N 11 15 6 8 1015.8 1015.9 3.4
26/08:00am 6.5 3.1 5.9 96 0.3 N 13 15 7 8 1015.9 1016.0 3.4
26/07:30am 7.0 3.3 6.1 94 0.4 N 15 19 8 10 1016.0 1016.1 3.4
26/07:00am 6.6 3.4 5.2 91 0.6 NNE 11 15 6 8 1016.0 1016.1 3.4
26/06:30am 8.3 5.7 6.1 86 1.0 WNW 9 11 5 6 1016.0 1016.1 3.4
26/06:00am 8.5 5.2 6.3 86 1.0 W 13 15 7 8 1015.8 1015.9 3.4
26/05:30am 8.8 4.2 5.5 80 1.5 WNW 19 24 10 13 1015.6 1015.7 3.4
26/05:00am 8.4 4.5 5.5 82 1.3 WNW 15 19 8 10 1015.6 1015.7 3.4
26/04:30am 8.6 4.7 5.2 79 1.5 WNW 15 20 8 11 1015.6 1015.7 3.4
26/04:00am 8.5 4.6 5.3 80 1.4 WNW 15 19 8 10 1015.7 1015.8 3.4
26/03:30am 9.3 5.4 5.5 77 1.7 W 15 19 8 10 1016.0 1016.1 3.4
26/03:00am 8.7 4.7 5.1 78 1.6 W 15 19 8 10 1016.2 1016.3 3.4
26/02:30am 8.9 4.8 4.3 73 2.0 W 15 24 8 13 1016.3 1016.4 3.4
26/02:00am 8.8 4.3 4.4 74 1.9 W 17 22 9 12 1016.6 1016.7 3.4
26/01:30am 8.0 4.7 4.4 78 1.6 WNW 11 13 6 7 1016.7 1016.8 3.4
26/01:00am 8.3 4.5 3.9 74 1.9 W 13 17 7 9 1016.8 1016.9 3.4
26/12:30am 8.9 4.8 4.1 72 2.1 W 15 22 8 12 1016.9 1017.0 3.4
26/12:00am 8.8 4.7 4.4 74 1.9 W 15 20 8 11 1016.9 1017.0 3.4
 
Date/Time
CST
Temp
°C
App
Temp
°C
Dew
Point
°C
Rel
Hum
%
Delta-T
°C
Wind Press
QNH
hPa
Press
MSL
hPa
Rain since
9am
mm
Dir  Spd
km/h
Gust
km/h
Spd
kts
Gust
kts
25/11:30pm 8.1 4.4 4.5 78 1.6 W 13 17 7 9 1016.9 1017.0 3.4
25/11:00pm 7.5 4.3 5.1 85 1.1 WSW 11 13 6 7 1017.1 1017.2 3.4
25/10:30pm 8.6 4.7 5.4 80 1.4 SW 15 20 8 11 1017.0 1017.1 3.4
25/10:00pm 9.3 5.1 5.9 79 1.6 WSW 17 24 9 13 1016.7 1016.8 3.4
25/09:30pm 9.2 5.0 5.8 79 1.5 WSW 17 24 9 13 1016.8 1016.9 3.4
25/09:00pm 9.8 3.5 5.8 76 1.8 SW 28 37 15 20 1016.9 1017.0 3.4
25/08:30pm 10.7 4.1 4.2 64 2.9 W 28 35 15 19 1016.3 1016.4 3.4
25/08:00pm 11.2 4.8 5.3 67 2.7 W 28 35 15 19 1016.0 1016.1 3.4
25/07:30pm 11.3 6.1 7.4 77 1.9 W 24 37 13 20 1015.9 1016.0 3.4
25/07:00pm 11.5 6.5 8.0 79 1.7 W 24 33 13 18 1015.6 1015.7 3.4
25/06:30pm 11.3 7.3 8.2 81 1.5 W 19 26 10 14 1015.1 1015.2 3.4
25/06:00pm 11.2 7.0 8.2 82 1.5 W 20 28 11 15 1014.8 1014.9 3.4
25/05:30pm 11.4 7.2 8.3 81 1.5 WSW 20 33 11 18 1014.3 1014.4 3.4
25/05:00pm 11.3 6.8 9.9 91 0.7 SW 24 33 13 18 1013.8 1013.9 3.2
25/04:30pm 11.5 6.4 10.6 94 0.5 WSW 28 37 15 20 1013.3 1013.3 3.2
25/04:27pm 11.4 6.2 10.3 93 0.6 WSW 28 37 15 20 1013.3 1013.3 3.2
25/04:25pm 11.4 6.2 10.3 93 0.6 WSW 28 39 15 21 1013.3 1013.3 3.2
25/04:04pm 11.9 5.6 11.1 95 0.4 W 35 50 19 27 1013.1 1013.1 2.8
25/04:00pm 12.1 6.2 11.0 93 0.6 W 33 50 18 27 1012.9 1012.9 2.2
25/03:59pm 12.2 6.2 10.9 92 0.7 W 33 50 18 27 1012.8 1012.8 2.0
25/03:48pm 12.4 6.3 10.5 88 1.0 WNW 33 46 18 25 1012.8 1012.8 1.6
25/03:40pm 12.4 5.2 10.6 89 0.9 W 39 57 21 31 1012.6 1012.6 1.6
25/03:30pm 12.4 5.0 11.1 92 0.7 WNW 41 63 22 34 1012.6 1012.6 1.4
25/03:27pm 12.6 5.5 10.8 89 0.9 NW 39 63 21 34 1012.3 1012.3 1.0
25/03:11pm 12.8 7.3 10.7 87 1.1 NNW 30 50 16 27 1012.0 1012.0 0.4
25/03:00pm 12.7 6.8 10.6 87 1.1 NNW 32 43 17 23 1012.1 1012.1 0.2
25/02:43pm 12.9 7.0 10.6 86 1.2 NW 32 50 17 27 1012.5 1012.5 0.2
25/02:30pm 12.9 7.6 11.1 89 0.9 NW 30 43 16 23 1012.9 1012.9 0.2
25/02:19pm 12.5 7.9 11.1 91 0.7 NNW 26 39 14 21 1013.1 1013.1 0.2
25/02:02pm 12.3 5.8 10.4 88 1.0 NNW 35 57 19 31 1013.0 1013.0 0.2
25/02:00pm 12.5 6.5 10.2 86 1.2 NNW 32 57 17 31 1013.1 1013.1 0.2
25/01:30pm 12.8 6.3 9.1 78 1.9 NW 33 52 18 28 1013.1 1013.1 0.0
25/01:29pm 12.8 6.3 8.9 77 2.0 NW 33 52 18 28 1013.2 1013.2 0.0
25/01:00pm 13.0 6.6 8.7 75 2.2 NNW 32 43 17 23 1013.6 1013.6 0.0
25/12:31pm 12.4 4.8 8.9 79 1.8 NW 39 65 21 35 1014.3 1014.4 0.0
25/12:30pm 12.5 5.2 8.8 78 1.8 NW 37 50 20 27 1014.4 1014.5 0.0
25/12:14pm 13.0 5.9 8.1 72 2.4 NW 35 56 19 30 1014.4 1014.5 0.0
25/12:00pm 13.2 7.2 8.5 73 2.3 NW 30 46 16 25 1014.6 1014.7 0.0
25/11:42am 12.7 6.2 8.0 73 2.3 NNW 32 50 17 27 1015.1 1015.2 0.0
25/11:30am 12.6 6.6 8.7 77 1.9 NW 30 43 16 23 1015.1 1015.2 0.0
25/11:00am 12.2 5.8 8.5 78 1.8 NW 32 46 17 25 1015.4 1015.5 0.0
25/10:30am 12.2 6.3 8.9 80 1.6 NNW 30 39 16 21 1015.6 1015.7 0.0
25/10:00am 12.1 8.1 9.1 82 1.5 NNW 20 35 11 19 1016.1 1016.2 0.0
25/09:30am 11.2 7.1 8.8 85 1.2 NNW 20 28 11 15 1016.2 1016.3 0.0
25/09:00am 10.0 6.4 8.3 89 0.8 N 17 24 9 13 1015.8 1015.9 5.8
25/08:30am 9.1 6.1 7.9 92 0.6 NNW 13 17 7 9 1015.7 1015.8 5.8
25/08:00am 7.8 4.6 6.9 94 0.4 N 13 15 7 8 1015.6 1015.7 5.8
25/07:30am 8.5 4.6 7.1 91 0.7 N 17 20 9 11 1015.5 1015.6 5.8
25/07:00am 10.4 6.4 8.2 86 1.1 NW 19 28 10 15 1015.2 1015.3 5.8
25/06:30am 10.1 6.8 7.9 86 1.1 WNW 15 20 8 11 1015.2 1015.3 5.8
25/06:00am 9.6 5.9 7.9 89 0.8 NW 17 20 9 11 1015.2 1015.3 5.8
25/05:30am 9.6 6.1 7.2 85 1.1 WNW 15 20 8 11 1015.0 1015.1 5.8
25/05:00am 9.9 6.4 7.2 83 1.3 W 15 19 8 10 1014.9 1015.0 5.8
25/04:30am 9.2 5.9 6.6 84 1.2 W 13 17 7 9 1014.7 1014.8 5.8
25/04:00am 9.7 5.7 6.8 82 1.4 WSW 17 22 9 12 1014.8 1014.9 5.8
25/03:30am 10.1 5.5 6.6 79 1.6 WSW 20 28 11 15 1014.9 1015.0 5.8
25/03:00am 9.9 5.9 6.8 81 1.5 W 17 24 9 13 1014.9 1015.0 5.8
25/02:30am 9.8 5.3 7.1 83 1.3 W 20 28 11 15 1014.9 1015.0 5.8
25/02:00am 10.3 5.1 7.4 82 1.4 W 24 35 13 19 1015.0 1015.1 5.8
25/01:30am 10.1 5.2 6.8 80 1.5 W 22 32 12 17 1014.8 1014.9 5.8
25/01:04am 10.5 4.5 7.2 80 1.6 W 28 48 15 26 1014.6 1014.7 5.8
25/01:00am 10.5 5.3 7.4 81 1.5 W 24 32 13 17 1014.6 1014.7 5.8
25/12:30am 10.2 4.6 7.1 81 1.5 WSW 26 35 14 19 1014.4 1014.5 5.8
25/12:00am 10.9 4.5 7.0 77 1.9 W 30 43 16 23 1014.1 1014.2 5.8
 
Date/Time
CST
Temp
°C
App
Temp
°C
Dew
Point
°C
Rel
Hum
%
Delta-T
°C
Wind Press
QNH
hPa
Press
MSL
hPa
Rain since
9am
mm
Dir  Spd
km/h
Gust
km/h
Spd
kts
Gust
kts
24/11:30pm 10.8 3.8 6.9 77 1.8 W 33 48 18 26 1013.9 1014.0 5.8
24/11:00pm 10.5 4.4 6.8 78 1.7 W 28 44 15 24 1013.7 1013.7 5.8
24/10:44pm 11.4 4.3 6.5 72 2.3 W 33 56 18 30 1013.3 1013.3 5.6
24/10:30pm 11.4 4.5 6.3 71 2.4 W 32 43 17 23 1013.1 1013.1 5.6
24/10:08pm 11.6 4.7 6.5 71 2.4 W 32 52 17 28 1013.0 1013.0 5.6
24/10:00pm 11.3 4.3 6.2 71 2.4 W 32 44 17 24 1013.0 1013.0 5.6
24/09:30pm 11.4 3.9 6.5 72 2.3 W 35 50 19 27 1012.5 1012.5 5.6
24/09:00pm 11.4 4.5 6.5 72 2.3 W 32 46 17 25 1012.2 1012.2 5.6
24/08:35pm 11.5 4.0 6.4 71 2.4 W 35 56 19 30 1012.1 1012.1 5.6
24/08:30pm 11.5 3.8 7.0 74 2.1 W 37 52 20 28 1012.1 1012.1 5.6
24/08:00pm 11.7 2.6 6.8 72 2.3 W 44 63 24 34 1011.8 1011.8 5.6
24/07:30pm 11.8 3.8 7.3 74 2.2 W 39 57 21 31 1011.4 1011.4 5.6
24/07:08pm 11.9 3.5 7.2 73 2.3 W 41 61 22 33 1010.8 1010.8 5.6
24/07:00pm 11.7 3.7 7.6 76 2.0 W 39 52 21 28 1010.8 1010.8 5.6
24/06:30pm 11.5 2.6 7.6 77 1.9 W 44 65 24 35 1010.2 1010.2 5.6
24/06:02pm 11.7 3.3 7.2 74 2.2 WNW 41 59 22 32 1009.9 1009.9 5.6
24/06:00pm 11.7 2.9 7.2 74 2.2 WNW 43 59 23 32 1009.7 1009.7 5.6
24/05:30pm 11.4 2.5 6.9 74 2.1 WNW 43 69 23 37 1009.4 1009.4 5.6
24/05:00pm 12.0 2.9 6.9 71 2.4 WNW 44 65 24 35 1008.9 1008.9 5.6
24/04:34pm 12.0 3.8 6.7 70 2.5 WNW 39 57 21 31 1008.8 1008.8 5.6
24/04:30pm 11.7 3.6 7.0 73 2.3 WNW 39 56 21 30 1008.8 1008.8 5.6
24/04:03pm 12.7 4.3 5.8 63 3.2 WNW 39 61 21 33 1008.4 1008.4 5.6
24/04:00pm 12.8 4.9 6.4 65 3.0 WNW 37 52 20 28 1008.5 1008.5 5.6
24/03:31pm 12.9 6.1 7.1 68 2.8 WNW 32 50 17 27 1008.4 1008.4 5.6
24/03:30pm 13.1 6.4 7.5 69 2.7 WNW 32 46 17 25 1008.5 1008.5 5.6
24/03:05pm 12.2 5.3 7.3 72 2.4 WNW 33 54 18 29 1008.3 1008.3 5.6
24/03:00pm 12.2 5.9 7.3 72 2.4 WNW 30 44 16 24 1008.4 1008.4 5.6
24/02:31pm 10.8 4.4 6.9 77 1.8 WNW 30 48 16 26 1008.5 1008.5 5.6
24/02:30pm 10.8 4.0 7.1 78 1.8 WNW 32 48 17 26 1008.6 1008.6 5.6
24/02:00pm 12.3 3.9 5.7 64 3.1 WNW 39 57 21 31 1008.1 1008.1 5.4
24/01:30pm 12.5 2.7 5.4 62 3.3 W 46 65 25 35 1007.8 1007.8 5.4
24/01:24pm 12.6 3.5 5.8 63 3.2 WNW 43 65 23 35 1007.7 1007.7 5.4
24/01:23pm 12.6 3.4 5.5 62 3.3 WNW 43 63 23 34 1007.8 1007.8 5.4
24/01:01pm 11.9 5.2 8.0 77 1.9 NW 33 52 18 28 1008.2 1008.2 5.4
24/01:00pm 11.9 4.8 8.2 78 1.8 NW 35 52 19 28 1008.2 1008.2 5.4
24/12:38pm 11.5 4.2 7.0 74 2.1 WNW 35 56 19 30 1008.3 1008.3 5.4
24/12:30pm 11.2 5.1 8.1 81 1.5 WNW 30 43 16 23 1008.5 1008.5 5.4
24/12:12pm 8.8 3.5 6.6 86 1.0 WNW 24 33 13 18 1008.9 1008.9 5.4
24/12:00pm 8.2 0.6 6.0 86 1.0 WNW 35 61 19 33 1008.9 1008.9 5.4
24/11:54am 8.0 -0.9 5.1 82 1.3 WNW 41 61 22 33 1009.2 1009.2 5.4
24/11:48am 10.1 3.3 7.0 81 1.5 NW 32 50 17 27 1008.9 1008.9 4.4
24/11:30am 10.0 5.7 7.8 86 1.1 NW 20 30 11 16 1009.1 1009.1 4.4
24/11:07am 8.8 4.3 6.9 88 0.9 NW 20 28 11 15 1009.1 1009.1 4.4
24/11:00am 8.7 3.5 7.3 91 0.7 WNW 24 37 13 20 1009.2 1009.2 4.4
24/10:35am 8.6 5.2 7.8 95 0.4 W 15 20 8 11 1009.4 1009.4 3.8
24/10:30am 8.5 4.3 7.6 94 0.4 W 19 30 10 16 1009.5 1009.5 3.8
24/10:22am 8.4 2.5 7.3 93 0.5 W 28 46 15 25 1009.5 1009.5 3.6
24/10:15am 8.7 1.9 7.5 92 0.6 WNW 33 46 18 25 1009.6 1009.6 2.8
24/10:13am 8.7 1.0 7.0 89 0.8 WNW 37 59 20 32 1009.4 1009.4 2.6
24/10:06am 8.9 0.9 7.4 90 0.7 NW 39 59 21 32 1009.2 1009.2 2.2
24/10:04am 8.9 1.3 7.4 90 0.7 NW 37 50 20 27 1009.2 1009.2 2.2
24/10:00am 8.9 1.6 7.4 90 0.7 NNW 35 50 19 27 1009.1 1009.1 2.0
24/09:30am 9.3 3.7 7.3 87 0.9 NNW 26 41 14 22 1008.6 1008.6 0.6
24/09:00am 10.0 5.3 6.2 77 1.8 N 20 35 11 19 1008.6 1008.6 0.0
24/08:30am 9.8 4.5 6.7 81 1.5 N 24 33 13 18 1008.7 1008.7 0.0
24/08:00am 9.6 4.3 6.7 82 1.4 N 24 32 13 17 1009.0 1009.0 0.0
24/07:30am 9.3 3.5 6.2 81 1.4 N 26 35 14 19 1009.0 1009.0 0.0
24/07:00am 9.2 4.1 5.9 80 1.5 N 22 30 12 16 1009.3 1009.3 0.0
24/06:30am 8.6 4.0 5.7 82 1.3 N 19 24 10 13 1009.5 1009.5 0.0
24/06:00am 8.7 3.9 5.6 81 1.4 N 20 26 11 14 1009.7 1009.7 0.0
24/05:30am 8.6 3.8 5.4 80 1.4 N 20 26 11 14 1009.8 1009.8 0.0
24/05:00am 8.2 3.4 5.5 83 1.2 NNE 20 26 11 14 1010.0 1010.0 0.0
24/04:30am 8.4 3.2 5.3 81 1.4 N 22 28 12 15 1010.5 1010.5 0.0
24/04:00am 7.7 3.4 5.2 84 1.1 NNE 17 24 9 13 1010.9 1010.9 0.0
24/03:30am 7.3 2.4 5.0 85 1.0 NNE 20 28 11 15 1011.3 1011.3 0.0
24/03:00am 7.5 2.3 5.3 86 1.0 N 22 30 12 16 1011.6 1011.6 0.0
24/02:30am 6.9 2.6 5.4 90 0.7 NNE 17 20 9 11 1012.1 1012.1 0.0
24/02:00am 6.8 2.5 5.4 91 0.6 NNE 17 24 9 13 1012.5 1012.5 0.0
24/01:30am 7.2 2.6 5.5 89 0.8 N 19 26 10 14 1013.0 1013.0 0.0
24/01:00am 7.2 3.0 5.8 91 0.6 NNE 17 22 9 12 1013.7 1013.7 0.0
24/12:30am 6.7 3.0 6.1 96 0.3 N 15 17 8 9 1014.1 1014.2 0.0
24/12:00am 6.0 3.3 5.4 96 0.3 NE 9 11 5 6 1014.4 1014.5 0.0

Other Formats:

Comma delimited format used in spreadsheet applications
http://www.bom.gov.au/fwo/IDS60801/IDS60801.95677.axf

JavaScript Object Notation format (JSON) in row-major order
http://www.bom.gov.au/fwo/IDS60801/IDS60801.95677.json